718  
ASUS41 KCTP 201810  
RWRCTP  
 
REGIONAL WEATHER ROUNDUP  
NATIONAL WEATHER SERVICE STATE COLLEGE PA  
200 PM EDT WED SEP 20 2017  
 
NOTE: "FAIR" INDICATES FEW OR NO CLOUDS BELOW 12,000 FEET WITH NO  
SIGNIFICANT WEATHER AND/OR S TO VISIBILITY
.  
 
* = STATION THAT DOES NOT REPORT PRECIPITATION /E.G. RAIN...SNOW...ETC/  
THUNDER OR FOG.
 
 
PAZ002>004-007>009-013>016-020>023-029>032-201900-  
WESTERN PENNSYLVANIA  
 
CITY SKY/WX TMP DP RH WIND PRES REMARKS
 
ERIE SUNNY 77 65 66 NW5 30.03F  
MEADVILLE PTSUNNY 84 61 45 VRB5 30.05F  
FRANKLIN* SUNNY 79 63 57 NW7 30.06F  
NEW CASTLE CLOUDY 80 66 62 VRB3 30.04F  
BEAVER COUNTY CLOUDY 79 63 57 N5 30.04F  
BUTLER* SUNNY 80 64 58 VRB5 30.04F  
PITTSBURGH INT PTSUNNY 80 64 58 N7 30.03F  
PITTSBURGH MOSUNNY 78 60 53 VRB3 30.02F  
INDIANA* SUNNY 79 59 50 VRB5 30.06F  
LATROBE MOSUNNY 79 64 61 VRB5 30.04F  
WASHINGTON CO* CLOUDY 81 63 54 W3 30.03F  

 
 
PAZ004>006-010>012-017>019-024>028-033>037-041-042-045-046-049>053-201900-  
CENTRAL PENNSYLVANIA  
 
CITY SKY/WX TMP DP RH WIND PRES REMARKS
 
BRADFORD SUNNY 78 60 53 VRB7 30.07F  
DUBOIS MOSUNNY 79 57 46 VRB6 30.05F  
CLEARFIELD SUNNY 82 52 35 MISG 30.04F  
JOHNSTOWN SUNNY 76 57 51 W10 30.07F  
ALTOONA SUNNY 80 57 45 VRB5 30.03F  
STATE COLLEGE SUNNY 81 61 50 CALM 30.01F  
WILLIAMSPORT SUNNY 85 64 49 W7 29.95F  
SELINSGROVE SUNNY 83 63 50 NE6 29.97F  
FT INDIANTOWN MOSUNNY 82 62 50 N8 29.94F  
CAPITAL CITY SUNNY 84 61 45 NW7 29.95F  
HARRISBURG SUNNY 84 64 50 N12 29.93F  
YORK SUNNY 83 63 50 NW9 29.95F  

 
 
PAZ038>040-043-044-047-048-054-055-060>062-067>071-201900-  
EASTERN PENNSYLVANIA  
 
CITY SKY/WX TMP DP RH WIND PRES REMARKS
 
SCRANTON SUNNY 83 60 45 N8 29.96F  
MOUNT POCONO SUNNY 78 58 49 NE15G21 29.99F  
ALLENTOWN SUNNY 85 65 51 NE14 29.91F  
QUAKERTOWN* CLEAR 82 66 57 NE7 29.93F  
READING MOSUNNY 86 66 51 NW10 29.91F  
LANCASTER MOSUNNY 84 66 54 NW8G16 29.93F  
COATESVILLE CLEAR 82 64 54 N9G16 29.95S  
POTTSTOWN SUNNY 83 65 54 N7 29.93S  
BLUE BELL SUNNY 81 66 61 N7 29.92S  
DOYLESTOWN MOSUNNY 84 66 54 NE12 29.91F  
WILLOW GROVE NOT AVBL  
NORTH PHILA MOSUNNY 83 66 56 NE14 29.92S  
PHILADELPHIA PTSUNNY 85 66 53 N14 29.89F  

 
 
 
CLICK HERE TO GO TO PREVIOUS BULLETINS.

The Nexlab PA Page Main Text Page